Flag for U.S.A. Weather past 2 weeks in Livonia, Michigan, U.S.A.

Now
51 °F

Broken clouds.


Feels Like: 48 °F
Forecast: 38 / 58 °F
Wind: 9 mph from Southeast

Location: Detroit Metropolitan Wayne County Airport


UV Index: 0 (Low)

Visibility: 10 mi


Pressure: 30.18 "Hg

Humidity: 24%

Dew point: 15 °F

Location of LivoniaLocation

Historic Weather in Livonia

°F

Livonia temperature yesterday

Maximum temperature yesterday: 56 °F (at 4:53 PM)
Minimum temperature yesterday: 38 °F (at 6:53 AM)
Average temperature yesterday: 46 °F

Past Weeks' High & Low Weather Summary

 TemperatureHumidityPressure
High79 °F (Apr 21, 1:53 PM)93% (Apr 15, 2:00 AM)30.49 "Hg (Apr 15, 2:00 AM)
Low23 °F (Apr 16, 6:53 AM)17% (Apr 11, 3:53 PM)29.44 "Hg (Apr 14, 6:53 AM)
Average51 °F55%30.04 "Hg
* Reported Apr 9 10:53 AM — Apr 24 10:53 AM, Livonia, Weather by CustomWeather, © 2014

Note: Actual official high and low records may vary slightly from our data, if they occured in-between our weather recording intervals... More about our weather records

Advertising

Historic Weather Conditions — Data for Previous 24 hours

 ConditionsComfort  
Time TempWeatherWind HumidityBarometerVisibility
10:53 AM
Apr 24
49 °FMostly cloudy.8 mph23%30.20 "Hg10 mi
9:53 AM45 °FOvercast.8 mph23%30.20 "Hg10 mi
8:53 AM43 °FMostly cloudy.7 mph34%30.20 "Hg10 mi
7:53 AM41 °FMostly cloudy.3 mph36%30.20 "Hg10 mi
6:53 AM40 °FOvercast.No wind41%30.19 "Hg10 mi
5:53 AM41 °FOvercast.No wind39%30.18 "Hg10 mi
4:53 AM41 °FMostly cloudy.No wind43%30.16 "Hg10 mi
3:53 AM41 °FMostly cloudy.3 mph43%30.15 "Hg10 mi
2:53 AM42 °FMostly cloudy.No wind49%30.14 "Hg10 mi
1:53 AM43 °FMostly cloudy.6 mph47%30.14 "Hg10 mi
12:53 AM44 °FMostly cloudy.6 mph49%30.14 "Hg10 mi
11:53 PM
Apr 23
45 °FPassing clouds.No wind48%30.14 "Hg10 mi
10:53 PM46 °FPassing clouds.No wind48%30.14 "Hg10 mi
9:53 PM47 °FPassing clouds.5 mph52%30.14 "Hg10 mi
8:53 PM49 °FPartly sunny.3 mph48%30.12 "Hg10 mi
7:53 PM52 °FPartly sunny.6 mph26%30.10 "Hg10 mi
6:53 PM54 °FPartly sunny.7 mph25%30.09 "Hg10 mi
5:53 PM56 °FScattered clouds.8 mph24%30.09 "Hg10 mi
4:53 PM56 °FScattered clouds.12 mph26%30.09 "Hg10 mi
3:53 PM55 °FPassing clouds.5 mph30%30.09 "Hg10 mi
2:53 PM55 °FPassing clouds.9 mph34%30.09 "Hg10 mi
1:53 PM53 °FScattered clouds.12 mph37%30.10 "Hg10 mi
12:53 PM50 °FScattered clouds.10 mph44%30.11 "Hg10 mi
12:00 PM48 °FScattered clouds.12 mph50%30.11 "Hg10 mi
Weather by CustomWeather, © 2014

See weather overview